|
NORAD ID: 31406 Int'l Code: 1980-073H
Perigee: 811.7 km
Apogee: 881.6 km
Inclination: 81.2 °
Period: 101.7 minutes
Semi major axis: 7217 km
Launch date: September 9, 1980
Source: Commonwealth of Independent States (former USSR) (CIS)
Note: This is SATELLITE DEBRIS
Two Line Element Set (TLE):
1 31406U 80073H 13141.50809357 .00003067 00000-0 15377-2 0 3950
2 31406 081.2166 064.3051 0048371 311.0400 058.4962 14.15821044336524
Source:
NASA's NSSDC Master Catalog entry for METEOR 2-6 DEB
|